Weather Roundup
Issued by NWS Springfield, MO

Home | Current Version | Previous Version | Text Only | Print | Product List | Glossary On
Versions: 1 2 3 4 5 6 7 8 9 10 11 12 13 14 15 16 17 18 19 20 21 22 23 24 25 26 27 28 29 30 31 32 33 34 35 36 37 38 39 40 41 42 43 44 45 46 47 48 49 50
000
NZUS99 KSGF 050059
HRRSGF

HOURLY WEATHER
NATIONAL WEATHER SERVICE SPRINGFIELD MO
800 PM CDT SAT JUL 04 2015

......SGF CWA......

CITY           SKY/WX    TMP DP  RH WIND       PRES   REMARKS
SPRINGFIELD    PTCLDY    80  68  66 N6        29.96R
JOPLIN         PTCLDY    81  67  62 E5        29.94S
WEST PLAINS    CLEAR     77  68  73 SE3       30.00R
ROLLA          CLEAR     75  67  76 E5        29.98R
OSAGE BEACH    CLEAR     75  68  78 CALM      29.97S
BRANSON        MOCLDY    77  70  78 CALM      29.99R

......SURROUNDING SGF CWA......

CITY           SKY/WX    TMP DP  RH WIND       PRES   REMARKS
CHANUTE        CLEAR     82  66  58 E7        29.92S
PARSONS        CLEAR     84  69  60 VRB3      29.93R
COFFEYVILLE    PTCLDY    85  67  54 SE5       29.90S
EMPORIA        CLEAR     82  62  50 SE7       29.92R
GROVE OK       PTCLDY    82  70  65 CALM      29.94R
SILOAM SPRINGS PTCLDY    81  66  61 SE3       29.96S
HARRISON AR    CLEAR     77  69  76 SE7       29.99R
NEAR YELLVILLE   N/A     79  68  69 SE3       29.96R

......KANSAS AND MISSOURI......

CITY           SKY/WX    TMP DP  RH WIND       PRES   REMARKS
KANSAS CTY INT MOCLDY    78  62  57 SE9       29.94S
DOWNTOWN KC    PTCLDY    80  63  55 SE10      29.92F
COLUMBIA       CLEAR     77  66  68 E3        29.98R
SEDALIA        PTCLDY    78  67  68 CALM      29.98S
ST JOSEPH      PTCLDY    78  64  61 SE6       29.93F
ST LOUIS       PTCLDY    78  62  57 E7        29.99R
SPIRIT OF STL  PTCLDY    76  65  68 E3        29.97R
KIRKSVILLE     CLEAR     75  64  68 S5        29.99R
WICHITA        PTCLDY    87  64  46 SE10      29.89S
TOPEKA         PTCLDY    81  64  56 E5        29.93R
OLATHE         PTCLDY    77  64  64 SE7       29.94F

......TENNESSEE......

CITY           SKY/WX    TMP DP  RH WIND       PRES   REMARKS
MEMPHIS        MOCLDY    77  69  76 CALM      29.98F
NASHVILLE      RAIN      70  70 100 S7        30.00R FOG

......ARKANSAS.......

CITY           SKY/WX    TMP DP  RH WIND       PRES   REMARKS
FAYETTEVILLE   PTCLDY    77  70  79 S3        29.96R
FT SMITH       CLEAR     84  70  62 E3        29.91R
LITTLE ROCK    MOCLDY    79  70  74 S7        29.96R

......OKLAHOMA.......

CITY           SKY/WX    TMP DP  RH WIND       PRES   REMARKS
TULSA          PTCLDY    86  70  58 SE7       29.90S HX  90
PONCA CITY     CLEAR     87  66  49 SE9       29.89S
MCALESTER      MOCLDY    77  70  79 S5        29.94R
OKLAHOMA CITY  PTCLDY    78  66  66 SE10      29.91R

......IOWA............

CITY           SKY/WX    TMP DP  RH WIND       PRES   REMARKS
DES MOINES     CLOUDY    79  60  52 SE7       29.94F
QUAD CITIES    CLEAR     76  63  64 CALM      29.98R

......ILLINOIS........

CITY           SKY/WX    TMP DP  RH WIND       PRES   REMARKS
QUINCY         CLEAR     78  62  57 CALM      29.98R
CHICAGO        CLEAR     75  57  53 E8        29.98R




USA.gov is the U.S. government's official web portal to all federal, state and local government web resources and services.